TimeEET,TemperatureF,Dew PointF,Humidity,Sea Level PressureIn,VisibilityMPH,Wind Direction,Wind SpeedMPH,Gust SpeedMPH,PrecipitationIn,Events,Conditions,WindDirDegrees,DateUTC
12:00 AM,68.0,48.2,49,29.77,-9999.0,SSW,2.3,-,N/A,,Clear,200,2014-01-26 22:00:00
1:00 AM,68.0,39.2,35,29.74,-9999.0,SSW,2.3,-,N/A,,Clear,200,2014-01-26 23:00:00
2:00 AM,67,26,11,29.75,6,NW,4.6,,,,,320,2014-01-27 00:00:00
2:00 AM,66.2,26.6,23,29.77,-9999.0,NW,4.6,-,N/A,,Clear,320,2014-01-27 00:00:00
3:00 AM,66.2,39.2,37,29.74,-9999.0,NNW,6.9,-,N/A,,Clear,330,2014-01-27 01:00:00
4:00 AM,64.4,28.4,26,29.77,-9999.0,North,6.9,-,N/A,,Clear,350,2014-01-27 02:00:00
5:00 AM,62,30,19,29.77,6,North,8.1,,,,,350,2014-01-27 03:00:00
5:00 AM,62.6,33.8,34,29.77,-9999.0,North,8.1,-,N/A,,Clear,350,2014-01-27 03:00:00
6:00 AM,60.8,30.2,31,29.77,-9999.0,North,3.5,-,N/A,,Clear,360,2014-01-27 04:00:00
7:00 AM,62.6,30.2,30,29.80,-9999.0,North,5.8,-,N/A,,Clear,10,2014-01-27 05:00:00
8:00 AM,64,34,21,29.81,6,North,5.8,,,,,0,2014-01-27 06:00:00
8:00 AM,64.4,33.8,32,29.80,-9999.0,North,5.8,-,N/A,,Clear,360,2014-01-27 06:00:00
9:00 AM,66.2,35.6,32,29.83,-9999.0,North,13.8,-,N/A,,Clear,350,2014-01-27 07:00:00
10:00 AM,69.8,33.8,27,29.83,-9999.0,North,11.5,-,N/A,,Clear,350,2014-01-27 08:00:00
11:00 AM,72,33,14,29.82,6,North,12.7,,,,,350,2014-01-27 09:00:00
11:00 AM,71.6,33.8,25,29.83,-9999.0,North,12.7,-,N/A,,Clear,350,2014-01-27 09:00:00
12:00 PM,-9999,-9999,N/A,29.80,-9999.0,North,-9999.0,-,N/A,,Clear,0,2014-01-27 10:00:00
1:00 PM,77.0,33.8,21,29.77,-9999.0,North,8.1,-,N/A,,Clear,360,2014-01-27 11:00:00
2:00 PM,79,32,10,29.74,6,North,6.9,,,,,350,2014-01-27 12:00:00
2:00 PM,78.8,32.0,18,29.77,-9999.0,North,6.9,-,N/A,,Clear,350,2014-01-27 12:00:00
3:00 PM,80.6,30.2,16,29.74,-9999.0,NW,6.9,-,N/A,,Clear,320,2014-01-27 13:00:00
4:00 PM,82.4,28.4,14,29.77,-9999.0,WNW,9.2,-,N/A,,Clear,290,2014-01-27 14:00:00
5:00 PM,80,30,8,29.75,6,NW,8.1,,,,,320,2014-01-27 15:00:00
5:00 PM,80.6,30.2,16,29.77,-9999.0,NW,8.1,-,N/A,,Clear,320,2014-01-27 15:00:00
6:00 PM,77.0,28.4,17,29.77,-9999.0,WNW,6.9,-,N/A,,Clear,300,2014-01-27 16:00:00
7:00 PM,73.4,26.6,18,29.80,-9999.0,WNW,6.9,-,N/A,,Clear,290,2014-01-27 17:00:00
8:00 PM,71,29,11,29.82,6,WNW,9.2,,,,,290,2014-01-27 18:00:00
8:00 PM,71.6,28.4,20,29.83,-9999.0,WNW,9.2,-,N/A,,Clear,290,2014-01-27 18:00:00
9:00 PM,-9999,-9999,N/A,29.83,-9999.0,North,-9999.0,-,N/A,,Clear,0,2014-01-27 19:00:00
10:00 PM,68.0,30.2,24,29.86,-9999.0,WNW,11.5,-,N/A,,Clear,290,2014-01-27 20:00:00
11:00 PM,65,30,16,29.88,6,WNW,11.5,,,,,300,2014-01-27 21:00:00
11:00 PM,66.2,30.2,26,29.89,-9999.0,WNW,11.5,-,N/A,,Clear,300,2014-01-27 21:00:00